Year,Month,Day,Hour,Minute,Value (Times are PST for temperature in C)
2015,04,21,00,00,9.70
2015,04,21,00,01,9.70
2015,04,21,00,02,9.60
2015,04,21,00,03,9.60
2015,04,21,00,04,9.60
2015,04,21,00,05,9.60
2015,04,21,00,06,9.60
2015,04,21,00,07,9.60
2015,04,21,00,08,9.60
2015,04,21,00,09,9.50
2015,04,21,00,10,9.50
2015,04,21,00,11,9.50
2015,04,21,00,12,9.50
2015,04,21,00,13,9.50
2015,04,21,00,14,9.50
2015,04,21,00,15,9.50
2015,04,21,00,16,9.40
2015,04,21,00,17,9.40
2015,04,21,00,18,9.40
2015,04,21,00,19,9.40
2015,04,21,00,20,9.40
2015,04,21,00,21,9.40
2015,04,21,00,22,9.40
2015,04,21,00,23,9.40
2015,04,21,00,24,9.40
2015,04,21,00,25,9.30
2015,04,21,00,26,9.30
2015,04,21,00,27,9.30
2015,04,21,00,28,9.30
2015,04,21,00,29,9.20
2015,04,21,00,30,9.20
2015,04,21,00,31,9.20
2015,04,21,00,32,9.20
2015,04,21,00,33,9.20
2015,04,21,00,34,9.20
2015,04,21,00,35,9.20
2015,04,21,00,36,9.20
2015,04,21,00,37,9.10
2015,04,21,00,38,9.10
2015,04,21,00,39,9.10
2015,04,21,00,40,9.10
2015,04,21,00,41,9.10
2015,04,21,00,42,9.00
2015,04,21,00,43,9.00
2015,04,21,00,44,9.00
2015,04,21,00,45,9.00
2015,04,21,00,46,9.00
2015,04,21,00,47,9.00
2015,04,21,00,48,9.00
2015,04,21,00,49,8.90
2015,04,21,00,50,8.90
2015,04,21,00,51,8.90
2015,04,21,00,52,8.90
2015,04,21,00,53,8.90
2015,04,21,00,54,8.90
2015,04,21,00,55,8.90
2015,04,21,00,56,8.90
2015,04,21,00,57,8.90
2015,04,21,00,58,8.80
2015,04,21,00,59,8.80
2015,04,21,01,00,8.80
2015,04,21,01,01,8.80
2015,04,21,01,02,8.80
2015,04,21,01,03,8.70
2015,04,21,01,04,8.70
2015,04,21,01,05,8.70
2015,04,21,01,06,8.70
2015,04,21,01,07,8.70
2015,04,21,01,08,8.70
2015,04,21,01,09,8.70
2015,04,21,01,10,8.70
2015,04,21,01,11,8.70
2015,04,21,01,12,8.70
2015,04,21,01,13,8.70
2015,04,21,01,14,8.70
2015,04,21,01,15,8.70
2015,04,21,01,16,8.70
2015,04,21,01,17,8.70
2015,04,21,01,18,8.70
2015,04,21,01,19,8.70
2015,04,21,01,20,8.70
2015,04,21,01,21,8.70
2015,04,21,01,22,8.70
2015,04,21,01,23,8.70
2015,04,21,01,24,8.70
2015,04,21,01,25,8.70
2015,04,21,01,26,8.70
2015,04,21,01,27,8.70
2015,04,21,01,28,8.70
2015,04,21,01,29,8.70
2015,04,21,01,30,8.70
2015,04,21,01,31,8.70
2015,04,21,01,32,8.70
2015,04,21,01,33,8.70
2015,04,21,01,34,8.70
2015,04,21,01,35,8.70
2015,04,21,01,36,8.70
2015,04,21,01,37,8.70
2015,04,21,01,38,8.70
2015,04,21,01,39,8.70
2015,04,21,01,40,8.70
2015,04,21,01,41,8.70
2015,04,21,01,42,8.70
2015,04,21,01,43,8.70
2015,04,21,01,44,8.70
2015,04,21,01,45,8.60
2015,04,21,01,46,8.60
2015,04,21,01,47,8.60
2015,04,21,01,48,8.60
2015,04,21,01,49,8.60
2015,04,21,01,50,8.60
2015,04,21,01,51,8.60
2015,04,21,01,52,8.60
2015,04,21,01,53,8.60
2015,04,21,01,54,8.60
2015,04,21,01,55,8.60
2015,04,21,01,56,8.60
2015,04,21,01,57,8.60
2015,04,21,01,58,8.60
2015,04,21,01,59,8.60
2015,04,21,02,00,8.60
2015,04,21,02,01,8.60
2015,04,21,02,02,8.60
2015,04,21,02,03,8.60
2015,04,21,02,04,8.60
2015,04,21,02,05,8.60
2015,04,21,02,06,8.50
2015,04,21,02,07,8.50
2015,04,21,02,08,8.50
2015,04,21,02,09,8.50
2015,04,21,02,10,8.50
2015,04,21,02,11,8.40
2015,04,21,02,12,8.40
2015,04,21,02,13,8.40
2015,04,21,02,14,8.30
2015,04,21,02,15,8.30
2015,04,21,02,16,8.30
2015,04,21,02,17,8.30
2015,04,21,02,18,8.30
2015,04,21,02,19,8.30
2015,04,21,02,20,8.30
2015,04,21,02,21,8.30
2015,04,21,02,22,8.30
2015,04,21,02,23,8.30
2015,04,21,02,24,8.30
2015,04,21,02,25,8.30
2015,04,21,02,26,8.30
2015,04,21,02,27,8.30
2015,04,21,02,28,8.30
2015,04,21,02,29,8.30
2015,04,21,02,30,8.30
2015,04,21,02,31,8.30
2015,04,21,02,32,8.20
2015,04,21,02,33,8.20
2015,04,21,02,34,8.20
2015,04,21,02,35,8.20
2015,04,21,02,36,8.20
2015,04,21,02,37,8.20
2015,04,21,02,38,8.20
2015,04,21,02,39,8.20
2015,04,21,02,40,8.10
2015,04,21,02,41,8.10
2015,04,21,02,42,8.10
2015,04,21,02,43,8.00
2015,04,21,02,44,8.00
2015,04,21,02,45,8.00
2015,04,21,02,46,8.00
2015,04,21,02,47,8.00
2015,04,21,02,48,7.90
2015,04,21,02,49,7.90
2015,04,21,02,50,7.90
2015,04,21,02,51,7.90
2015,04,21,02,52,7.90
2015,04,21,02,53,7.90
2015,04,21,02,54,7.90
2015,04,21,02,55,7.90
2015,04,21,02,56,7.90
2015,04,21,02,57,7.90
2015,04,21,02,58,7.90
2015,04,21,02,59,7.90
2015,04,21,03,00,7.90
2015,04,21,03,01,7.90
2015,04,21,03,02,7.90
2015,04,21,03,03,7.90
2015,04,21,03,04,7.90
2015,04,21,03,05,8.00
2015,04,21,03,06,8.00
2015,04,21,03,07,8.00
2015,04,21,03,08,7.90
2015,04,21,03,09,7.90
2015,04,21,03,10,7.90
2015,04,21,03,11,7.90
2015,04,21,03,12,7.90
2015,04,21,03,13,7.90
2015,04,21,03,14,7.90
2015,04,21,03,15,7.90
2015,04,21,03,16,7.90
2015,04,21,03,17,7.90
2015,04,21,03,18,7.90
2015,04,21,03,19,7.90
2015,04,21,03,20,7.90
2015,04,21,03,21,7.90
2015,04,21,03,22,7.90
2015,04,21,03,23,7.90
2015,04,21,03,24,7.90
2015,04,21,03,25,7.90
2015,04,21,03,26,7.90
2015,04,21,03,27,7.90
2015,04,21,03,28,7.90
2015,04,21,03,29,7.90
2015,04,21,03,30,7.90
2015,04,21,03,31,7.90
2015,04,21,03,32,7.90
2015,04,21,03,33,7.90
2015,04,21,03,34,7.90
2015,04,21,03,35,7.90
2015,04,21,03,36,7.90
2015,04,21,03,37,7.80
2015,04,21,03,38,7.80
2015,04,21,03,39,7.80
2015,04,21,03,40,7.80
2015,04,21,03,41,7.80
2015,04,21,03,42,7.80
2015,04,21,03,43,7.80
2015,04,21,03,44,7.80
2015,04,21,03,45,7.80
2015,04,21,03,46,7.80
2015,04,21,03,47,7.80
2015,04,21,03,48,7.80
2015,04,21,03,49,7.80
2015,04,21,03,50,7.80
2015,04,21,03,51,7.80
2015,04,21,03,52,7.80
2015,04,21,03,53,7.80
2015,04,21,03,54,7.80
2015,04,21,03,55,7.80
2015,04,21,03,56,7.90
2015,04,21,03,57,7.90
2015,04,21,03,58,7.90
2015,04,21,03,59,7.90
2015,04,21,04,00,7.90
2015,04,21,04,01,7.90
2015,04,21,04,02,7.90
2015,04,21,04,03,7.90
2015,04,21,04,04,7.80
2015,04,21,04,05,7.80
2015,04,21,04,06,7.80
2015,04,21,04,07,7.80
2015,04,21,04,08,7.80
2015,04,21,04,09,7.80
2015,04,21,04,10,7.80
2015,04,21,04,11,7.70
2015,04,21,04,12,7.70
2015,04,21,04,13,7.70
2015,04,21,04,14,7.70
2015,04,21,04,15,7.60
2015,04,21,04,16,7.60
2015,04,21,04,17,7.60
2015,04,21,04,18,7.60
2015,04,21,04,19,7.60
2015,04,21,04,20,7.60
2015,04,21,04,21,7.50
2015,04,21,04,22,7.50
2015,04,21,04,23,7.50
2015,04,21,04,24,7.50
2015,04,21,04,25,7.50
2015,04,21,04,26,7.40
2015,04,21,04,27,7.40
2015,04,21,04,28,7.40
2015,04,21,04,29,7.40
2015,04,21,04,30,7.40
2015,04,21,04,31,7.40
2015,04,21,04,32,7.40
2015,04,21,04,33,7.40
2015,04,21,04,34,7.40
2015,04,21,04,35,7.40
2015,04,21,04,36,7.40
2015,04,21,04,37,7.50
2015,04,21,04,38,7.50
2015,04,21,04,39,7.50
2015,04,21,04,40,7.50
2015,04,21,04,41,7.50
2015,04,21,04,42,7.50
2015,04,21,04,43,7.50
2015,04,21,04,44,7.50
2015,04,21,04,45,7.50
2015,04,21,04,46,7.50
2015,04,21,04,47,7.50
2015,04,21,04,48,7.40
2015,04,21,04,49,7.40
2015,04,21,04,50,7.40
2015,04,21,04,51,7.40
2015,04,21,04,52,7.30
2015,04,21,04,53,7.30
2015,04,21,04,54,7.30
2015,04,21,04,55,7.30
2015,04,21,04,56,7.30
2015,04,21,04,57,7.30
2015,04,21,04,58,7.30
2015,04,21,04,59,7.30
2015,04,21,05,00,7.30
2015,04,21,05,01,7.30
2015,04,21,05,02,7.20
2015,04,21,05,03,7.20
2015,04,21,05,04,7.20
2015,04,21,05,05,7.20
2015,04,21,05,06,7.20
2015,04,21,05,07,7.20
2015,04,21,05,08,7.20
2015,04,21,05,09,7.30
2015,04,21,05,10,7.30
2015,04,21,05,11,7.30
2015,04,21,05,12,7.30
2015,04,21,05,13,7.30
2015,04,21,05,14,7.30
2015,04,21,05,15,7.30
2015,04,21,05,16,7.30
2015,04,21,05,17,7.30
2015,04,21,05,18,7.30
2015,04,21,05,19,7.30
2015,04,21,05,20,7.30
2015,04,21,05,21,7.30
2015,04,21,05,22,7.30
2015,04,21,05,23,7.30
2015,04,21,05,24,7.30
2015,04,21,05,25,7.30
2015,04,21,05,26,7.40
2015,04,21,05,27,7.40
2015,04,21,05,28,7.40
2015,04,21,05,29,7.40
2015,04,21,05,30,7.40
2015,04,21,05,31,7.50
2015,04,21,05,32,7.50
2015,04,21,05,33,7.50
2015,04,21,05,34,7.50
2015,04,21,05,35,7.50
2015,04,21,05,36,7.50
2015,04,21,05,37,7.50
2015,04,21,05,38,7.50
2015,04,21,05,39,7.60
2015,04,21,05,40,7.60
2015,04,21,05,41,7.60
2015,04,21,05,42,7.60
2015,04,21,05,43,7.50
2015,04,21,05,44,7.50
2015,04,21,05,45,7.50
2015,04,21,05,46,7.50
2015,04,21,05,47,7.40
2015,04,21,05,48,7.40
2015,04,21,05,49,7.40
2015,04,21,05,50,7.40
2015,04,21,05,51,7.40
2015,04,21,05,52,7.50
2015,04,21,05,53,7.50
2015,04,21,05,54,7.50
2015,04,21,05,55,7.50
2015,04,21,05,56,7.50
2015,04,21,05,57,7.50
2015,04,21,05,58,7.50
2015,04,21,05,59,7.50
2015,04,21,06,00,7.50
2015,04,21,06,01,7.50
2015,04,21,06,02,7.50
2015,04,21,06,03,7.50
2015,04,21,06,04,7.50
2015,04,21,06,05,7.50
2015,04,21,06,06,7.50
2015,04,21,06,07,7.50
2015,04,21,06,08,7.50
2015,04,21,06,09,7.50
2015,04,21,06,10,7.50
2015,04,21,06,11,7.50
2015,04,21,06,12,7.50
2015,04,21,06,13,7.40
2015,04,21,06,14,7.40
2015,04,21,06,15,7.50
2015,04,21,06,16,7.50
2015,04,21,06,17,7.60
2015,04,21,06,18,7.60
2015,04,21,06,19,7.60
2015,04,21,06,20,7.60
2015,04,21,06,21,7.60
2015,04,21,06,22,7.60
2015,04,21,06,23,7.70
2015,04,21,06,24,7.70
2015,04,21,06,25,7.70
2015,04,21,06,26,7.70
2015,04,21,06,27,7.70
2015,04,21,06,28,7.70
2015,04,21,06,29,7.70
2015,04,21,06,30,7.60
2015,04,21,06,31,7.60
2015,04,21,06,32,7.60
2015,04,21,06,33,7.50
2015,04,21,06,34,7.50
2015,04,21,06,35,7.50
2015,04,21,06,36,7.50
2015,04,21,06,37,7.50
2015,04,21,06,38,7.60
2015,04,21,06,39,7.60
2015,04,21,06,40,7.60
2015,04,21,06,41,7.60
2015,04,21,06,42,7.50
2015,04,21,06,43,7.50
2015,04,21,06,44,7.50
2015,04,21,06,45,7.50
2015,04,21,06,46,7.50
2015,04,21,06,47,7.40
2015,04,21,06,48,7.40
2015,04,21,06,49,7.40
2015,04,21,06,50,7.40
2015,04,21,06,51,7.40
2015,04,21,06,52,7.40
2015,04,21,06,53,7.40
2015,04,21,06,54,7.40
2015,04,21,06,55,7.50
2015,04,21,06,56,7.50
2015,04,21,06,57,7.50
2015,04,21,06,58,7.50
2015,04,21,06,59,7.60
2015,04,21,07,00,7.60
2015,04,21,07,01,7.60
2015,04,21,07,02,7.70
2015,04,21,07,03,7.70
2015,04,21,07,04,7.70
2015,04,21,07,05,7.80
2015,04,21,07,06,7.80
2015,04,21,07,07,7.80
2015,04,21,07,08,7.80
2015,04,21,07,09,7.80
2015,04,21,07,10,7.80
2015,04,21,07,11,7.80
2015,04,21,07,12,7.80
2015,04,21,07,13,7.80
2015,04,21,07,14,7.80
2015,04,21,07,15,7.80
2015,04,21,07,16,7.80
2015,04,21,07,17,7.80
2015,04,21,07,18,7.90
2015,04,21,07,19,7.90
2015,04,21,07,20,7.90
2015,04,21,07,21,7.90
2015,04,21,07,22,8.00
2015,04,21,07,23,8.00
2015,04,21,07,24,8.00
2015,04,21,07,25,8.10
2015,04,21,07,26,8.10
2015,04,21,07,27,8.20
2015,04,21,07,28,8.30
2015,04,21,07,29,8.40
2015,04,21,07,30,8.50
2015,04,21,07,31,8.50
2015,04,21,07,32,8.60
2015,04,21,07,33,8.70
2015,04,21,07,34,8.70
2015,04,21,07,35,8.80
2015,04,21,07,36,8.80
2015,04,21,07,37,8.90
2015,04,21,07,38,8.90
2015,04,21,07,39,8.90
2015,04,21,07,40,9.00
2015,04,21,07,41,9.00
2015,04,21,07,42,9.10
2015,04,21,07,43,9.10
2015,04,21,07,44,9.20
2015,04,21,07,45,9.20
2015,04,21,07,46,9.20
2015,04,21,07,47,9.30
2015,04,21,07,48,9.40
2015,04,21,07,49,9.50
2015,04,21,07,50,9.50
2015,04,21,07,51,9.60
2015,04,21,07,52,9.60
2015,04,21,07,53,9.70
2015,04,21,07,54,9.70
2015,04,21,07,55,9.80
2015,04,21,07,56,9.90
2015,04,21,07,57,10.00
2015,04,21,07,58,10.10
2015,04,21,07,59,10.20
2015,04,21,08,00,10.30
2015,04,21,08,01,10.40
2015,04,21,08,02,10.50
2015,04,21,08,03,10.60
2015,04,21,08,04,10.70
2015,04,21,08,05,10.80
2015,04,21,08,06,10.80
2015,04,21,08,07,10.90
2015,04,21,08,08,10.90
2015,04,21,08,09,11.00
2015,04,21,08,10,11.10
2015,04,21,08,11,11.10
2015,04,21,08,12,11.10
2015,04,21,08,13,11.20
2015,04,21,08,14,11.30
2015,04,21,08,15,11.30
2015,04,21,08,16,11.40
2015,04,21,08,17,11.40
2015,04,21,08,18,11.40
2015,04,21,08,19,11.50
2015,04,21,08,20,11.60
2015,04,21,08,21,11.60
2015,04,21,08,22,11.60
2015,04,21,08,23,11.60
2015,04,21,08,24,11.60
2015,04,21,08,25,11.70
2015,04,21,08,26,11.80
2015,04,21,08,27,11.80
2015,04,21,08,28,11.90
2015,04,21,08,29,11.90
2015,04,21,08,30,12.00
2015,04,21,08,31,12.10
2015,04,21,08,32,12.20
2015,04,21,08,33,12.30
2015,04,21,08,34,12.40
2015,04,21,08,35,12.50
2015,04,21,08,36,12.60
2015,04,21,08,37,12.60
2015,04,21,08,38,12.60
2015,04,21,08,39,12.70
2015,04,21,08,40,12.80
2015,04,21,08,41,12.90
2015,04,21,08,42,13.00
2015,04,21,08,43,13.10
2015,04,21,08,44,13.30
2015,04,21,08,45,13.40
2015,04,21,08,46,13.50
2015,04,21,08,47,13.60
2015,04,21,08,48,13.60
2015,04,21,08,49,13.60
2015,04,21,08,50,13.60
2015,04,21,08,51,13.50
2015,04,21,08,52,13.50
2015,04,21,08,53,13.60
2015,04,21,08,54,13.60
2015,04,21,08,55,13.70
2015,04,21,08,56,13.70
2015,04,21,08,57,13.70
2015,04,21,08,58,13.80
2015,04,21,08,59,13.90
2015,04,21,09,00,13.90
2015,04,21,09,01,13.90
2015,04,21,09,02,14.00
2015,04,21,09,03,14.10
2015,04,21,09,04,14.20
2015,04,21,09,05,14.20
2015,04,21,09,06,14.40
2015,04,21,09,07,14.40
2015,04,21,09,08,14.50
2015,04,21,09,09,14.60
2015,04,21,09,10,14.70
2015,04,21,09,11,14.80
2015,04,21,09,12,14.90
2015,04,21,09,13,15.00
2015,04,21,09,14,15.10
2015,04,21,09,15,15.10
2015,04,21,09,16,15.20
2015,04,21,09,17,15.30
2015,04,21,09,18,15.30
2015,04,21,09,19,15.30
2015,04,21,09,20,15.40
2015,04,21,09,21,15.40
2015,04,21,09,22,15.50
2015,04,21,09,23,15.50
2015,04,21,09,24,15.50
2015,04,21,09,25,15.60
2015,04,21,09,26,15.50
2015,04,21,09,27,15.50
2015,04,21,09,28,15.50
2015,04,21,09,29,15.50
2015,04,21,09,30,15.60
2015,04,21,09,31,15.60
2015,04,21,09,32,15.60
2015,04,21,09,33,15.60
2015,04,21,09,34,15.60
2015,04,21,09,35,15.50
2015,04,21,09,36,15.30
2015,04,21,09,37,15.30
2015,04,21,09,38,15.30
2015,04,21,09,39,15.20
2015,04,21,09,40,15.10
2015,04,21,09,41,15.00
2015,04,21,09,42,14.90
2015,04,21,09,43,14.70
2015,04,21,09,44,14.60
2015,04,21,09,45,14.50
2015,04,21,09,46,14.40
2015,04,21,09,47,14.40
2015,04,21,09,48,14.30
2015,04,21,09,49,14.30
2015,04,21,09,50,14.20
2015,04,21,09,51,14.10
2015,04,21,09,52,14.00
2015,04,21,09,53,14.00
2015,04,21,09,54,14.00
2015,04,21,09,55,13.90
2015,04,21,09,56,13.90
2015,04,21,09,57,13.90
2015,04,21,09,58,13.80
2015,04,21,09,59,13.80
2015,04,21,10,00,13.90
2015,04,21,10,01,13.80
2015,04,21,10,02,13.80
2015,04,21,10,03,13.80
2015,04,21,10,04,13.70
2015,04,21,10,05,13.70
2015,04,21,10,06,13.70
2015,04,21,10,07,13.70
2015,04,21,10,08,13.70
2015,04,21,10,09,13.70
2015,04,21,10,10,13.70
2015,04,21,10,11,13.80
2015,04,21,10,12,13.90
2015,04,21,10,13,14.00
2015,04,21,10,14,14.10
2015,04,21,10,15,14.20
2015,04,21,10,16,14.30
2015,04,21,10,17,14.40
2015,04,21,10,18,14.40
2015,04,21,10,19,14.40
2015,04,21,10,20,14.40
2015,04,21,10,21,14.50
2015,04,21,10,22,14.50
2015,04,21,10,23,14.50
2015,04,21,10,24,14.50
2015,04,21,10,25,14.50
2015,04,21,10,26,14.50
2015,04,21,10,27,14.50
2015,04,21,10,28,14.40
2015,04,21,10,29,14.40
2015,04,21,10,30,14.50
2015,04,21,10,31,14.50
2015,04,21,10,32,14.60
2015,04,21,10,33,14.60
2015,04,21,10,34,14.60
2015,04,21,10,35,14.70
2015,04,21,10,36,14.70
2015,04,21,10,37,14.70
2015,04,21,10,38,14.70
2015,04,21,10,39,14.70
2015,04,21,10,40,14.70
2015,04,21,10,41,14.70
2015,04,21,10,42,14.80
2015,04,21,10,43,14.80
2015,04,21,10,44,14.90
2015,04,21,10,45,14.90
2015,04,21,10,46,14.90
2015,04,21,10,47,14.80
2015,04,21,10,48,14.70
2015,04,21,10,49,14.60
2015,04,21,10,50,14.50
2015,04,21,10,51,14.60
2015,04,21,10,52,14.70
2015,04,21,10,53,14.70
2015,04,21,10,54,14.70
2015,04,21,10,55,14.70
2015,04,21,10,56,14.70
2015,04,21,10,57,14.60
2015,04,21,10,58,14.50
2015,04,21,10,59,14.40
2015,04,21,11,00,14.20
2015,04,21,11,01,14.00
2015,04,21,11,02,14.00
2015,04,21,11,03,13.90
2015,04,21,11,04,14.00
2015,04,21,11,05,14.10
2015,04,21,11,06,14.10
2015,04,21,11,07,14.20
2015,04,21,11,08,14.20
2015,04,21,11,09,14.30
2015,04,21,11,10,14.40
2015,04,21,11,11,14.30
2015,04,21,11,12,14.30
2015,04,21,11,13,14.50
2015,04,21,11,14,14.60
2015,04,21,11,15,14.70
2015,04,21,11,16,14.80
2015,04,21,11,17,14.90
2015,04,21,11,18,15.10
2015,04,21,11,19,15.40
2015,04,21,11,20,15.60
2015,04,21,11,21,15.80
2015,04,21,11,22,15.80
2015,04,21,11,23,15.90
2015,04,21,11,24,16.00
2015,04,21,11,25,16.10
2015,04,21,11,26,16.10
2015,04,21,11,27,16.20
2015,04,21,11,28,16.30
2015,04,21,11,29,16.50
2015,04,21,11,30,16.60
2015,04,21,11,31,16.80
2015,04,21,11,32,16.80
2015,04,21,11,33,16.90
2015,04,21,11,34,17.00
2015,04,21,11,35,17.30
2015,04,21,11,36,17.40
2015,04,21,11,37,17.50
2015,04,21,11,38,17.70
2015,04,21,11,39,17.80
2015,04,21,11,40,17.90
2015,04,21,11,41,18.00
2015,04,21,11,42,18.10
2015,04,21,11,43,18.20
2015,04,21,11,44,18.20
2015,04,21,11,45,18.20
2015,04,21,11,46,18.10
2015,04,21,11,47,18.00
2015,04,21,11,48,17.90
2015,04,21,11,49,17.80
2015,04,21,11,50,17.60
2015,04,21,11,51,17.50
2015,04,21,11,52,17.50
2015,04,21,11,53,17.50
2015,04,21,11,54,17.50
2015,04,21,11,55,17.50
2015,04,21,11,56,17.50
2015,04,21,11,57,17.60
2015,04,21,11,58,17.60
2015,04,21,11,59,17.70
2015,04,21,12,00,17.70
2015,04,21,12,01,17.60
2015,04,21,12,02,17.60
2015,04,21,12,03,17.70
2015,04,21,12,04,17.70
2015,04,21,12,05,17.70
2015,04,21,12,06,17.70
2015,04,21,12,07,17.70
2015,04,21,12,08,17.60
2015,04,21,12,09,17.60
2015,04,21,12,10,17.70
2015,04,21,12,11,17.70
2015,04,21,12,12,17.80
2015,04,21,12,13,17.80
2015,04,21,12,14,17.90
2015,04,21,12,15,17.90
2015,04,21,12,16,17.90
2015,04,21,12,17,17.80
2015,04,21,12,18,17.80
2015,04,21,12,19,17.70
2015,04,21,12,20,17.50
2015,04,21,12,21,17.50
2015,04,21,12,22,17.40
2015,04,21,12,23,17.30
2015,04,21,12,24,17.30
2015,04,21,12,25,17.30
2015,04,21,12,26,17.20
2015,04,21,12,27,17.20
2015,04,21,12,28,17.20
2015,04,21,12,29,17.20
2015,04,21,12,30,17.30
2015,04,21,12,31,17.30
2015,04,21,12,32,17.30
2015,04,21,12,33,17.30
2015,04,21,12,34,17.30
2015,04,21,12,35,17.30
2015,04,21,12,36,17.20
2015,04,21,12,37,17.00
2015,04,21,12,38,17.00
2015,04,21,12,39,16.90
2015,04,21,12,40,16.90
2015,04,21,12,41,16.90
2015,04,21,12,42,16.90
2015,04,21,12,43,16.80
2015,04,21,12,44,16.70
2015,04,21,12,45,16.80
2015,04,21,12,46,16.80
2015,04,21,12,47,16.80
2015,04,21,12,48,16.80
2015,04,21,12,49,16.80
2015,04,21,12,50,16.90
2015,04,21,12,51,16.90
2015,04,21,12,52,16.90
2015,04,21,12,53,16.90
2015,04,21,12,54,16.90
2015,04,21,12,55,16.90
2015,04,21,12,56,16.90
2015,04,21,12,57,16.80
2015,04,21,12,58,16.80
2015,04,21,12,59,16.70
2015,04,21,13,00,16.70
2015,04,21,13,01,16.70
2015,04,21,13,02,16.70
2015,04,21,13,03,16.80
2015,04,21,13,04,16.80
2015,04,21,13,05,16.90
2015,04,21,13,06,16.90
2015,04,21,13,07,16.90
2015,04,21,13,08,16.90
2015,04,21,13,09,16.90
2015,04,21,13,10,16.90
2015,04,21,13,11,16.90
2015,04,21,13,12,16.90
2015,04,21,13,13,16.90
2015,04,21,13,14,16.90
2015,04,21,13,15,16.90
2015,04,21,13,16,16.90
2015,04,21,13,17,16.90
2015,04,21,13,18,16.90
2015,04,21,13,19,16.90
2015,04,21,13,20,16.90
2015,04,21,13,21,16.90
2015,04,21,13,22,17.00
2015,04,21,13,23,17.00
2015,04,21,13,24,17.10
2015,04,21,13,25,17.20
2015,04,21,13,26,17.20
2015,04,21,13,27,17.20
2015,04,21,13,28,17.20
2015,04,21,13,29,17.10
2015,04,21,13,30,17.10
2015,04,21,13,31,17.00
2015,04,21,13,32,17.00
2015,04,21,13,33,17.00
2015,04,21,13,34,16.90
2015,04,21,13,35,16.90
2015,04,21,13,36,16.90
2015,04,21,13,37,16.90
2015,04,21,13,38,16.90
2015,04,21,13,39,16.90
2015,04,21,13,40,16.80
2015,04,21,13,41,16.80
2015,04,21,13,42,16.80
2015,04,21,13,43,16.70
2015,04,21,13,44,16.70
2015,04,21,13,45,16.80
2015,04,21,13,46,16.80
2015,04,21,13,47,16.90
2015,04,21,13,48,16.90
2015,04,21,13,49,16.90
2015,04,21,13,50,17.00
2015,04,21,13,51,17.00
2015,04,21,13,52,17.00
2015,04,21,13,53,17.00
2015,04,21,13,54,17.00
2015,04,21,13,55,17.10
2015,04,21,13,56,17.10
2015,04,21,13,57,17.20
2015,04,21,13,58,17.40
2015,04,21,13,59,17.70
2015,04,21,14,00,17.80
2015,04,21,14,01,17.90
2015,04,21,14,02,17.90
2015,04,21,14,03,17.90
2015,04,21,14,04,17.90
2015,04,21,14,05,17.90
2015,04,21,14,06,17.90
2015,04,21,14,07,17.90
2015,04,21,14,08,17.90
2015,04,21,14,09,17.90
2015,04,21,14,10,17.80
2015,04,21,14,11,17.70
2015,04,21,14,12,17.60
2015,04,21,14,13,17.50
2015,04,21,14,14,17.40
2015,04,21,14,15,17.30
2015,04,21,14,16,17.10
2015,04,21,14,17,17.00
2015,04,21,14,18,17.00
2015,04,21,14,19,16.90
2015,04,21,14,20,16.90
2015,04,21,14,21,16.90
2015,04,21,14,22,16.80
2015,04,21,14,23,16.70
2015,04,21,14,24,16.60
2015,04,21,14,25,16.60
2015,04,21,14,26,16.50
2015,04,21,14,27,16.40
2015,04,21,14,28,16.40
2015,04,21,14,29,16.40
2015,04,21,14,30,16.40
2015,04,21,14,31,16.30
2015,04,21,14,32,16.30
2015,04,21,14,33,16.20
2015,04,21,14,34,16.20
2015,04,21,14,35,16.10
2015,04,21,14,36,16.10
2015,04,21,14,37,16.00
2015,04,21,14,38,15.90
2015,04,21,14,39,15.80
2015,04,21,14,40,15.80
2015,04,21,14,41,15.70
2015,04,21,14,42,15.70
2015,04,21,14,43,15.60
2015,04,21,14,44,15.60
2015,04,21,14,45,15.50
2015,04,21,14,46,15.50
2015,04,21,14,47,15.40
2015,04,21,14,48,15.40
2015,04,21,14,49,15.30
2015,04,21,14,50,15.30
2015,04,21,14,51,15.30
2015,04,21,14,52,15.30
2015,04,21,14,53,15.30
2015,04,21,14,54,15.30
2015,04,21,14,55,15.30
2015,04,21,14,56,15.30
2015,04,21,14,57,15.30
2015,04,21,14,58,15.30
2015,04,21,14,59,15.30
2015,04,21,15,00,15.30
2015,04,21,15,01,15.30
2015,04,21,15,02,15.20
2015,04,21,15,03,15.20
2015,04,21,15,04,15.10
2015,04,21,15,05,15.00
2015,04,21,15,06,15.00
2015,04,21,15,07,15.00
2015,04,21,15,08,14.90
2015,04,21,15,09,14.90
2015,04,21,15,10,14.90
2015,04,21,15,11,14.90
2015,04,21,15,12,14.90
2015,04,21,15,13,14.90
2015,04,21,15,14,14.80
2015,04,21,15,15,14.80
2015,04,21,15,16,14.80
2015,04,21,15,17,14.80
2015,04,21,15,18,14.80
2015,04,21,15,19,14.70
2015,04,21,15,20,14.70
2015,04,21,15,21,14.60
2015,04,21,15,22,14.60
2015,04,21,15,23,14.60
2015,04,21,15,24,14.50
2015,04,21,15,25,14.50
2015,04,21,15,26,14.40
2015,04,21,15,27,14.40
2015,04,21,15,28,14.40
2015,04,21,15,29,14.30
2015,04,21,15,30,14.20
2015,04,21,15,31,14.20
2015,04,21,15,32,14.10
2015,04,21,15,33,14.00
2015,04,21,15,34,13.90
2015,04,21,15,35,13.80
2015,04,21,15,36,13.70
2015,04,21,15,37,13.70
2015,04,21,15,38,13.60
2015,04,21,15,39,13.60
2015,04,21,15,40,13.60
2015,04,21,15,41,13.60
2015,04,21,15,42,13.50
2015,04,21,15,43,13.50
2015,04,21,15,44,13.40
2015,04,21,15,45,13.30
2015,04,21,15,46,13.30
2015,04,21,15,47,13.30
2015,04,21,15,48,13.20
2015,04,21,15,49,13.20
2015,04,21,15,50,13.20
2015,04,21,15,51,13.10
2015,04,21,15,52,13.10
2015,04,21,15,53,13.00
2015,04,21,15,54,12.90
2015,04,21,15,55,12.90
2015,04,21,15,56,12.80
2015,04,21,15,57,12.80
2015,04,21,15,58,12.80
2015,04,21,15,59,12.80
2015,04,21,16,00,12.70
2015,04,21,16,01,12.70
2015,04,21,16,02,12.60
2015,04,21,16,03,12.60
2015,04,21,16,04,12.60
2015,04,21,16,05,12.60
2015,04,21,16,06,12.50
2015,04,21,16,07,12.50
2015,04,21,16,08,12.50
2015,04,21,16,09,12.40
2015,04,21,16,10,12.30
2015,04,21,16,11,12.30
2015,04,21,16,12,12.30
2015,04,21,16,13,12.30
2015,04,21,16,14,12.30
2015,04,21,16,15,12.30
2015,04,21,16,16,12.20
2015,04,21,16,17,12.20
2015,04,21,16,18,12.20
2015,04,21,16,19,12.10
2015,04,21,16,20,12.10
2015,04,21,16,21,12.10
2015,04,21,16,22,12.10
2015,04,21,16,23,12.10
2015,04,21,16,24,12.10
2015,04,21,16,25,12.10
2015,04,21,16,26,12.10
2015,04,21,16,27,12.00
2015,04,21,16,28,12.00
2015,04,21,16,29,12.00
2015,04,21,16,30,11.90
2015,04,21,16,31,11.90
2015,04,21,16,32,11.90
2015,04,21,16,33,11.90
2015,04,21,16,34,11.90
2015,04,21,16,35,11.90
2015,04,21,16,36,11.90
2015,04,21,16,37,11.90
2015,04,21,16,38,11.90
2015,04,21,16,39,11.90
2015,04,21,16,40,11.80
2015,04,21,16,41,11.80
2015,04,21,16,42,11.80
2015,04,21,16,43,11.80
2015,04,21,16,44,11.80
2015,04,21,16,45,11.80
2015,04,21,16,46,11.70
2015,04,21,16,47,11.70
2015,04,21,16,48,11.60
2015,04,21,16,49,11.60
2015,04,21,16,50,11.60
2015,04,21,16,51,11.60
2015,04,21,16,52,11.60
2015,04,21,16,53,11.40
2015,04,21,16,54,11.40
2015,04,21,16,55,11.30
2015,04,21,16,56,11.30
2015,04,21,16,57,11.20
2015,04,21,16,58,11.20
2015,04,21,16,59,11.20
2015,04,21,17,00,11.20
2015,04,21,17,01,11.20
2015,04,21,17,02,11.20
2015,04,21,17,03,11.20
2015,04,21,17,04,11.20
2015,04,21,17,05,11.20
2015,04,21,17,06,11.20
2015,04,21,17,07,11.20
2015,04,21,17,08,11.20
2015,04,21,17,09,11.30
2015,04,21,17,10,11.30
2015,04,21,17,11,11.40
2015,04,21,17,12,11.40
2015,04,21,17,13,11.50
2015,04,21,17,14,11.60
2015,04,21,17,15,11.60
2015,04,21,17,16,11.60
2015,04,21,17,17,11.60
2015,04,21,17,18,11.70
2015,04,21,17,19,11.70
2015,04,21,17,20,11.70
2015,04,21,17,21,11.80
2015,04,21,17,22,11.80
2015,04,21,17,23,11.80
2015,04,21,17,24,11.80
2015,04,21,17,25,11.80
2015,04,21,17,26,11.90
2015,04,21,17,27,11.90
2015,04,21,17,28,11.90
2015,04,21,17,29,11.90
2015,04,21,17,30,11.90
2015,04,21,17,31,11.90
2015,04,21,17,32,11.90
2015,04,21,17,33,11.90
2015,04,21,17,34,11.90
2015,04,21,17,35,12.00
2015,04,21,17,36,12.00
2015,04,21,17,37,12.00
2015,04,21,17,38,12.00
2015,04,21,17,39,11.90
2015,04,21,17,40,11.90